Weather History for Newberry, MI

Change the Weather History Date:

Thursday, January 31, 2013

  Actual Average Record
Temperature  
Mean Temperature 12 °F -  
Max Temperature 15 °F 25 °F 41 °F (1988)
Min Temperature 8 °F 7 °F -20 °F (1920)
Degree Days  
Heating Degree Days 54    
Moisture  
Dew Point 8 °F    
Average Humidity 85    
Maximum Humidity 92    
Minimum Humidity 73    
Precipitation  
Precipitation 0.00 in - - ()
Sea Level Pressure  
Sea Level Pressure 29.53 in    
Wind  
Wind Speed 9 mph (NW)    
Max Wind Speed 13 mph    
Max Gust Speed 24 mph    
Visibility 3 miles    
Events Snow    
Averages and records for this station are not official NWS values.
T = Trace of Precipitation, MM = Missing Value Source: NWS Daily Summary

Daily Weather History Graph

Daily Weather History Graph

Search for Another Location

Airport:

Trip Planner

Search our weather history database for the weather conditions in past years. The results will help you decide how hot, cold, wet, or windy it might be!

Date:

Astronomy

Jan. 31, 2013 Rise Set
Actual Time 8:05 AM EST 5:45 PM EST
Civil Twilight 7:33 AM EST 6:17 PM EST
Nautical Twilight 6:57 AM EST 6:53 PM EST
Astronomical Twilight 6:22 AM EST 7:28 PM EST
Moon 11:08 PM EST (1/31) 9:45 AM EST (1/31)
Length of Visible Light 10h 43m
Length of Day
9h 39m
Waning Gibbous, 80% of the Moon is Illuminated
Jan 31
Waning Gibbous
Feb 3
Last Quarter
Feb 10
New
Feb 17
First Quarter
Feb 25
Full

Hourly Weather History & Observations

Time (EST) Temp. Windchill Dew Point Humidity Pressure Visibility Wind Dir Wind Speed Gust Speed Precip Events Conditions
12:15 AM 10.4 °F -4.8 °F 8.6 °F 92% 29.23 in 5.0 mi North 12.7 mph 19.6 mph N/A Snow Light Snow
12:34 AM 10.4 °F -4.8 °F 6.8 °F 85% 29.24 in 4.0 mi North 12.7 mph 19.6 mph N/A Snow Light Snow
12:55 AM 10.4 °F -4.1 °F 6.8 °F 85% 29.25 in 7.0 mi North 11.5 mph 21.9 mph N/A   Overcast
1:15 AM 10.4 °F -3.3 °F 6.8 °F 85% 29.26 in 7.0 mi North 10.4 mph 18.4 mph N/A Snow Light Snow
1:34 AM 10.4 °F -2.4 °F 6.8 °F 85% 29.27 in 5.0 mi North 9.2 mph - N/A Snow Light Snow
1:55 AM 10.4 °F -2.4 °F 6.8 °F 85% 29.29 in 4.0 mi NNW 9.2 mph - N/A Snow Light Snow
2:14 AM 10.4 °F -0.4 °F 6.8 °F 85% 29.30 in 3.0 mi North 6.9 mph - N/A Snow Light Snow
2:35 AM 10.4 °F -0.4 °F 6.8 °F 85% 29.31 in 4.0 mi North 6.9 mph - N/A Snow Light Snow
2:55 AM 10.4 °F -1.5 °F 6.8 °F 85% 29.32 in 4.0 mi NNW 8.1 mph - N/A Snow Light Snow
3:14 AM 10.4 °F -3.3 °F 6.8 °F 85% 29.32 in 2.0 mi NNW 10.4 mph - N/A Snow Light Snow
3:35 AM 10.4 °F -1.5 °F 6.8 °F 85% 29.32 in 1.8 mi NNW 8.1 mph - N/A Snow Light Snow
3:54 AM 10.4 °F -0.4 °F 6.8 °F 85% 29.33 in 1.5 mi NNW 6.9 mph - N/A Snow Light Snow
4:15 AM 10.4 °F 0.8 °F 6.8 °F 85% 29.33 in 1.2 mi NNW 5.8 mph - N/A Snow Light Snow
4:35 AM 10.4 °F -2.4 °F 8.6 °F 92% 29.34 in 2.0 mi NNW 9.2 mph 19.6 mph N/A Snow Light Snow
4:54 AM 10.4 °F -4.1 °F 8.6 °F 92% 29.35 in 3.0 mi NW 11.5 mph 17.3 mph N/A Snow Light Snow
5:15 AM 10.4 °F -3.3 °F 8.6 °F 92% 29.36 in 2.5 mi NNW 10.4 mph - N/A Snow Light Snow
5:35 AM 10.4 °F -0.4 °F 6.8 °F 85% 29.37 in 2.0 mi NNW 6.9 mph - N/A Snow Light Snow
5:54 AM 10.4 °F -1.5 °F 6.8 °F 85% 29.37 in 2.0 mi NNW 8.1 mph - N/A Snow Light Snow
6:15 AM 10.4 °F -1.5 °F 6.8 °F 85% 29.39 in 1.5 mi NNW 8.1 mph - N/A Snow Light Snow
6:35 AM 10.4 °F 0.8 °F 6.8 °F 85% 29.40 in 1.5 mi NNW 5.8 mph - N/A Snow Light Snow
6:54 AM 10.4 °F 0.8 °F 6.8 °F 85% 29.40 in 1.2 mi NNW 5.8 mph - N/A Snow Light Snow
7:15 AM 10.4 °F 2.2 °F 6.8 °F 85% 29.42 in 1.2 mi NNW 4.6 mph - N/A Snow Light Snow
7:34 AM 10.4 °F -0.4 °F 6.8 °F 85% 29.43 in 1.2 mi NNW 6.9 mph - N/A Snow Light Snow
7:54 AM 8.6 °F -3.7 °F 6.8 °F 92% 29.43 in 4.0 mi NW 8.1 mph - N/A Snow Light Snow
8:15 AM 8.6 °F -3.7 °F 6.8 °F 92% 29.45 in 7.0 mi NW 8.1 mph - N/A Snow Light Snow
8:34 AM 8.6 °F -2.6 °F 6.8 °F 92% 29.46 in 7.0 mi NW 6.9 mph - N/A   Overcast
8:55 AM 10.4 °F 0.8 °F 6.8 °F 85% 29.47 in 4.0 mi NW 5.8 mph - N/A Snow Light Snow
9:14 AM 10.4 °F -0.4 °F 6.8 °F 85% 29.49 in 4.0 mi NW 6.9 mph - N/A Snow Light Snow
9:34 AM 10.4 °F -1.5 °F 5.0 °F 79% 29.49 in 7.0 mi NW 8.1 mph - N/A   Overcast
9:55 AM 10.4 °F -1.5 °F 6.8 °F 85% 29.50 in 3.0 mi NW 8.1 mph - N/A Snow Light Snow
10:35 AM 10.4 °F 0.8 °F 6.8 °F 85% 29.52 in 1.2 mi NW 5.8 mph - N/A Snow Light Snow
10:55 AM 12.2 °F 1.7 °F 8.6 °F 85% 29.53 in 1.8 mi NW 6.9 mph - N/A Snow Light Snow
11:14 AM 12.2 °F -0.2 °F 6.8 °F 79% 29.54 in 4.0 mi NW 9.2 mph - N/A Snow Light Snow
11:35 AM 12.2 °F 0.7 °F 6.8 °F 79% 29.55 in 3.0 mi NW 8.1 mph - N/A Snow Light Snow
11:59 AM 12.2 °F 0.7 °F 8.6 °F 85% 29.55 in 4.0 mi NW 8.1 mph 17.3 mph N/A Snow Light Snow
12:15 PM 12.2 °F -2.5 °F 8.6 °F 85% 29.55 in 4.0 mi NW 12.7 mph 16.1 mph N/A Snow Light Snow
12:35 PM 14.0 °F 2.9 °F 8.6 °F 79% 29.56 in 4.0 mi NNW 8.1 mph - N/A Snow Light Snow
12:54 PM 14.0 °F 2.9 °F 8.6 °F 79% 29.57 in 3.0 mi NW 8.1 mph - N/A Snow Light Snow
1:15 PM 14.0 °F 2.9 °F 8.6 °F 79% 29.57 in 4.0 mi NNW 8.1 mph - N/A Snow Light Snow
1:34 PM 14.0 °F 3.9 °F 8.6 °F 79% 29.58 in 1.8 mi NNW 6.9 mph - N/A Snow Light Snow
1:55 PM 14.0 °F 0.5 °F 8.6 °F 79% 29.58 in 2.5 mi NNW 11.5 mph 19.6 mph N/A Snow Light Snow
2:15 PM 14.0 °F 2.9 °F 10.4 °F 86% 29.59 in 1.8 mi NNW 8.1 mph - N/A Snow Light Snow
2:34 PM 14.0 °F 2.9 °F 8.6 °F 79% 29.59 in 2.0 mi NW 8.1 mph 11.5 mph N/A Snow Light Snow
2:55 PM 14.0 °F 2.9 °F 10.4 °F 86% 29.60 in 2.0 mi WNW 8.1 mph - N/A Snow Light Snow
3:15 PM 15.8 °F 4.2 °F 8.6 °F 73% 29.61 in 3.0 mi NW 9.2 mph - N/A Snow Light Snow
3:34 PM 15.8 °F 2.7 °F 10.4 °F 79% 29.62 in 2.0 mi NNW 11.5 mph - N/A Snow Light Snow
3:55 PM 15.8 °F 3.4 °F 10.4 °F 79% 29.63 in 2.5 mi NW 10.4 mph 24.2 mph N/A Snow Light Snow
4:15 PM 15.8 °F 6.1 °F 10.4 °F 79% 29.64 in 1.8 mi NW 6.9 mph - N/A Snow Light Snow
4:34 PM 15.8 °F 7.2 °F 10.4 °F 79% 29.65 in 1.8 mi NNW 5.8 mph - N/A Snow Light Snow
4:55 PM 14.0 °F 1.2 °F 10.4 °F 86% 29.66 in 1.8 mi NW 10.4 mph - N/A Snow Light Snow
5:15 PM 14.0 °F 2.0 °F 10.4 °F 86% 29.67 in 1.2 mi NW 9.2 mph 16.1 mph N/A Snow Light Snow
5:34 PM 14.0 °F 2.0 °F 10.4 °F 86% 29.68 in 1.2 mi NW 9.2 mph - N/A Snow Light Snow
5:55 PM 14.0 °F 5.1 °F 10.4 °F 86% 29.68 in 2.0 mi WNW 5.8 mph - N/A Snow Light Snow
6:14 PM 14.0 °F 3.9 °F 10.4 °F 86% 29.69 in 1.8 mi WNW 6.9 mph - N/A Snow Light Snow
6:35 PM 14.0 °F 3.9 °F 10.4 °F 86% 29.70 in 2.0 mi WNW 6.9 mph - N/A Snow Light Snow
6:55 PM 14.0 °F 2.0 °F 10.4 °F 86% 29.71 in 1.2 mi WNW 9.2 mph - N/A Snow Light Snow
7:14 PM 14.0 °F 2.9 °F 10.4 °F 86% 29.72 in 2.5 mi WNW 8.1 mph - N/A Snow Light Snow
7:35 PM 14.0 °F 2.9 °F 10.4 °F 86% 29.72 in 4.0 mi WNW 8.1 mph - N/A Snow Light Snow
8:15 PM 12.2 °F 2.9 °F 10.4 °F 92% 29.74 in 7.0 mi WNW 5.8 mph - N/A Snow Light Snow
8:35 PM 12.2 °F 2.9 °F 10.4 °F 92% 29.74 in 5.0 mi WNW 5.8 mph - N/A Snow Light Snow
8:54 PM 12.2 °F 2.9 °F 10.4 °F 92% 29.75 in 4.0 mi WNW 5.8 mph - N/A Snow Light Snow
9:15 PM 12.2 °F 2.9 °F 10.4 °F 92% 29.76 in 1.5 mi WNW 5.8 mph - N/A Snow Light Snow
9:34 PM 12.2 °F 4.3 °F 10.4 °F 92% 29.76 in 1.0 mi NW 4.6 mph - N/A Snow Snow
9:55 PM 12.2 °F 1.7 °F 10.4 °F 92% 29.77 in 2.0 mi NW 6.9 mph - N/A Snow Light Snow
10:15 PM 12.2 °F 4.3 °F 10.4 °F 92% 29.78 in 2.0 mi NW 4.6 mph - N/A Snow Light Snow
10:34 PM 12.2 °F 4.3 °F 10.4 °F 92% 29.79 in 1.2 mi NW 4.6 mph - N/A Snow Light Snow
10:55 PM 12.2 °F 4.3 °F 10.4 °F 92% 29.79 in 1.8 mi NNW 4.6 mph - N/A Snow Light Snow
11:15 PM 12.2 °F - 8.6 °F 85% 29.79 in 2.0 mi Calm Calm - N/A Snow Light Snow
11:34 PM 12.2 °F 6.1 °F 8.6 °F 85% 29.80 in 1.8 mi NNW 3.5 mph - N/A Snow Light Snow